{"data":{"norad_id":54831,"intl_designator":"2022-177M","name":"STARLINK-5395","alt_names":[],"object_type":"PAYLOAD","status":"ACTIVE","operator":null,"country":"US","launch_date":"2022-12-28","launch_site_code":"AFETR","launch_vehicle":null,"mission":null,"orbit_class":"UNKNOWN","rcs_meters":null,"size_class":null,"mass_kg":null,"dimensions":null,"purposes":["comms"],"wikipedia_slug":null,"has_3d_model":false,"image_url":null,"decayed_at":null,"tle_current":{"epoch":"2026-05-25T03:02:34.302624Z","epoch_age_seconds":74263,"freshness":"FRESH","line1":"1 54831U 22177M   26145.12678591  .00000468  00000+0  26520-4 0  9993","line2":"2 54831  43.0034  64.3602 0001224 240.5490 119.5239 15.27578250188617","mean_motion":15.2757825,"eccentricity":0.0001224,"inclination_deg":43.0034,"raan_deg":64.3602,"arg_perigee_deg":240.549,"mean_anomaly_deg":119.5239,"bstar":2.652e-5,"rev_number":18861,"period_min":94.266856706031,"perigee_km":482.21452635467,"apogee_km":483.89414599376,"semimajor_km":6861.1913361742,"source":"CELESTRAK","updated_at":"2026-05-25T13:38:17.722060Z"}}}